Voltar ao catálogo

SL-8 R/B

AtivoPO
NORAD 16799·ROCKET BODY·🇷🇺 Russia

Lançado Jun 18, 1986 de Plesetsk Cosmodrome

Loading…

Próximas Passagens (próximas 24 horas)

TLE

AtualizadoSource: Space-Track

Época: Sep 13, 2026, 23:17 UTC

1 16799U 86047B   26256.97036904 -.00000047  00000-0 -61958-4 0  9992
2 16799  82.9147  80.1582 0066309 181.8864 178.2054 13.77613906955750

Acompanhe SL-8 R/B em tempo real com AllMySat

Download on the App Store